Location: Aalen
(48.8330°N, 10.1000°E)
Time: 07:06:50
(UTC+02:00)

UWE-3 - Pass Details

Date: 09 April 2023
Orbit: 576 x 670 km, 97.7° (Epoch: 29 May)

Event Time Altitude Azimuth Distance (km) Brightness Sun altitude
Rises 06:04:01 0° 357° (N) 2,942 ? -6.8°
Reaches altitude 10° 06:07:30 10° 328° (NNW) 2,004 ? -6.3°
Maximum altitude 06:09:15 12° 304° (NW) 1,839 ? -6.0°
Drops below altitude 10° 06:10:59 10° 280° (W) 1,974 ? -5.7°
Enters shadow 06:12:25 - 264° (W) 2,279 ? -5.5°
